Weather History for Akron Canton, OH

Change the Weather History Date:

Thursday, January 3, 2013

  Actual Average Record
Temperature  
Mean Temperature 17 °F 26 °F  
Max Temperature 28 °F 33 °F 60 °F (1897)
Min Temperature 5 °F 20 °F -6 °F (1979)
Degree Days  
Heating Degree Days 48 39  
Month to date heating degree days 135 115  
Since 1 July heating degree days 2281 2445  
Cooling Degree Days 0 0  
Month to date cooling degree days 0 0  
Year to date cooling degree days 0 0  
Moisture  
Dew Point 13 °F    
Average Humidity 77    
Maximum Humidity 92    
Minimum Humidity 62    
Precipitation  
Precipitation T in 0.09 in 1.30 in (2000)
Month to date precipitation 0.03 0.27  
Year to date precipitation 0.03 0.27  
Snow  
Snow T in 0.40 in - ()
Month to date snowfall 0.3 1.2  
Since 1 July snowfall 14.6 14.8  
Snow Depth 6.00 in    
Sea Level Pressure  
Sea Level Pressure 30.20 in    
Wind  
Wind Speed 9 mph (SW)    
Max Wind Speed 21 mph    
Max Gust Speed 26 mph    
Visibility 7 miles    
Events Snow    
T = Trace of Precipitation, MM = Missing Value Source: NWS Daily Summary

Daily Weather History Graph

Daily Weather History Graph

Search for Another Location

Airport:

Trip Planner

Search our weather history database for the weather conditions in past years. The results will help you decide how hot, cold, wet, or windy it might be!

Date:

Astronomy

Jan. 03, 2013 Rise Set
Actual Time 7:50 AM EST 5:10 PM EST
Civil Twilight 7:19 AM EST 5:41 PM EST
Nautical Twilight 6:45 AM EST 6:15 PM EST
Astronomical Twilight 6:12 AM EST 6:49 PM EST
Moon 11:47 PM EST (1/3) 10:58 AM EST (1/3)
Length of Visible Light 10h 21m
Length of Day
9h 19m
Waning Gibbous, 65% of the Moon is Illuminated
Jan 3
Waning Gibbous
Jan 4
Last Quarter
Jan 11
New
Jan 18
First Quarter
Jan 26
Full

Hourly Weather History & Observations

Time (EST) Temp. Windchill Dew Point Humidity Pressure Visibility Wind Dir Wind Speed Gust Speed Precip Events Conditions
12:51 AM 10.0 °F - 9.0 °F 95% 30.23 in 4.0 mi Calm Calm - N/A   Scattered Clouds
1:51 AM 10.0 °F 3.6 °F 8.1 °F 92% 30.22 in 4.0 mi South 3.5 mph - N/A   Scattered Clouds
2:51 AM 10.0 °F - 7.0 °F 87% 30.23 in 4.0 mi Calm Calm - N/A   Partly Cloudy
3:51 AM 10.0 °F - 7.0 °F 87% 30.22 in 4.0 mi Calm Calm - N/A   Partly Cloudy
4:51 AM 4.6 °F -4.5 °F 0.9 °F 84% 30.22 in 4.0 mi South 4.6 mph - N/A   Clear
5:51 AM 5.0 °F -4.1 °F 0.7 °F 82% 30.22 in 4.0 mi South 4.6 mph - N/A   Clear
6:51 AM 5.0 °F -5.6 °F 0.7 °F 82% 30.22 in 4.0 mi SSW 5.8 mph - N/A   Clear
7:51 AM 8.1 °F -2.0 °F 5.0 °F 87% 30.23 in 6.0 mi SSW 5.8 mph - N/A   Partly Cloudy
8:51 AM 12.9 °F 1.6 °F 9.0 °F 84% 30.21 in 6.0 mi South 8.1 mph - N/A   Scattered Clouds
9:51 AM 16.0 °F 5.3 °F 10.0 °F 77% 30.21 in 6.0 mi SW 8.1 mph - N/A   Haze
10:51 AM 19.4 °F 7.9 °F 10.4 °F 68% 30.14 in 8.0 mi SW 10.4 mph - N/A   Scattered Clouds
11:51 AM 19.9 °F 8.6 °F 13.1 °F 75% 30.19 in 8.0 mi SW 10.4 mph - N/A   Mostly Cloudy
12:51 PM 22.1 °F 12.0 °F 12.0 °F 65% 30.17 in 10.0 mi WSW 9.2 mph - N/A   Mostly Cloudy
1:51 PM 25.0 °F 13.6 °F 13.1 °F 61% 30.14 in 10.0 mi WSW 12.7 mph 21.9 mph N/A   Mostly Cloudy
2:20 PM 28.4 °F 18.0 °F 15.8 °F 59% 30.08 in 8.0 mi WSW 12.7 mph - N/A   Overcast
2:51 PM 26.6 °F 14.3 °F 17.6 °F 69% 30.08 in 8.0 mi WSW 16.1 mph - N/A   Overcast
3:51 PM 27.9 °F 16.3 °F 18.9 °F 69% 30.17 in 10.0 mi West 15.0 mph 26.5 mph N/A   Overcast
4:51 PM 28.0 °F 18.6 °F 19.0 °F 69% 30.19 in 10.0 mi WSW 10.4 mph - N/A   Overcast
5:51 PM 28.0 °F 18.1 °F 19.9 °F 72% 30.21 in 10.0 mi WSW 11.5 mph - N/A   Overcast
6:51 PM 28.0 °F 18.1 °F 21.0 °F 75% 30.22 in 10.0 mi WSW 11.5 mph - N/A   Overcast
7:51 PM 28.0 °F 17.5 °F 19.9 °F 72% 30.22 in 10.0 mi WSW 12.7 mph - N/A   Overcast
8:32 PM 28.4 °F 19.1 °F 19.4 °F 69% 30.17 in 7.0 mi WSW 10.4 mph - N/A   Overcast
8:51 PM 28.0 °F 18.6 °F 19.9 °F 72% 30.22 in 8.0 mi WSW 10.4 mph - 0.00 in Snow Light Snow
9:51 PM 28.0 °F 19.3 °F 19.9 °F 72% 30.23 in 7.0 mi WSW 9.2 mph - 0.00 in Snow Light Snow
10:51 PM 28.0 °F 17.0 °F 21.0 °F 75% 30.23 in 5.0 mi West 13.8 mph - 0.00 in Snow Light Snow
11:51 PM 28.0 °F 16.5 °F 21.0 °F 75% 30.23 in 5.0 mi West 15.0 mph - 0.00 in Snow Light Snow